Wetbulb
49.83 49.72 49.28 49.23 48.62 48.57 48.56 48.00 47.48 47.27 48.73 49.98 50.30 49.61 48.45 48.57 49.00 49.75 53.43 54.19 54.97 55.79 56.53 56.72 56.97 56.95 56.56 55.68 55.07 55.46 55.62 56.89 56.96 57.76 58.40 58.51 58.92 59.29 59.97 60.92 61.83 62.13 63.63
49.44 49.16 48.58 48.01 47.71 48.12 48.12 47.60 46.77 47.25 48.49 49.32 47.50 46.91 46.37 46.94 47.53 48.73 49.50 51.96 51.57 52.05 52.66 53.33 53.56 53.99 54.20 54.09 54.11 54.40 54.36 55.40 55.70 56.20 56.78 56.75 57.31 58.07 58.58 59.22 60.92 61.16 61.68
49.47 49.28 48.29 47.49 47.09 47.66 47.24 46.49 46.25 47.88 48.61 48.04 46.21 45.47 45.62 45.80 46.39 47.26 48.27 48.82 48.98 48.27 48.87 49.76 50.80 51.55 52.55 53.06 53.31 54.42 54.57 54.38 54.43 55.09 55.65 55.48 55.92 56.51 56.66 57.43 58.89 59.54 60.92
49.18 48.37 47.26 46.86 46.86 46.58 46.25 45.46 45.83 46.95 47.56 47.01 45.05 44.58 44.73 45.20 45.30 46.07 46.21 46.66 46.11 45.54 46.20 46.86 48.31 49.56 50.48 51.60 53.06 53.61 53.26 53.17 53.79 54.15 54.73 54.91 54.69 55.17 55.50 56.10 56.98 57.89 58.61
48.14 47.73 46.61 45.38 45.89 45.22 44.98 44.38 44.45 46.45 45.84 44.51 43.15 43.40 43.97 44.41 44.84 45.13 44.78 44.59 44.34 44.21 43.86 43.43 44.48 46.78 48.05 49.41 51.22 51.77 51.68 51.84 52.56 53.13 53.19 53.45 53.52 53.70 54.11 54.46 55.49 56.31 56.98
46.30 46.05 45.42 44.83 44.37 43.46 42.59 42.91 43.85 45.31 45.63 43.86 41.39 40.88 42.29 43.25 44.46 44.25 44.10 44.09 43.61 43.48 42.97 42.12 43.65 44.02 45.23 47.09 48.83 49.65 50.16 51.13 51.93 52.42 52.05 52.16 52.07 52.19 52.54 53.13 53.96 55.13 55.47
46.06 45.54 45.03 43.88 43.78 42.97 42.10 42.36 43.69 43.71 42.60 43.87 42.51 41.27 40.49 42.20 42.58 42.99 43.83 43.60 42.91 42.68 41.80 40.82 41.79 43.30 43.95 44.34 45.75 47.04 48.58 50.25 51.16 51.28 51.15 50.97 50.86 51.18 51.32 51.63 52.33 53.30 54.18
45.64 44.56 43.88 43.13 43.16 41.42 41.04 41.39 42.44 41.14 40.94 42.00 42.65 42.72 38.82 38.53 38.93 39.89 41.15 40.80 41.18 41.78 40.39 38.91 39.40 41.16 42.30 43.11 43.78 44.37 44.77 46.50 48.92 49.61 49.74 49.80 49.93 50.29 50.61 51.06 51.30 51.92 52.66
44.21 43.98 43.64 41.56 40.74 41.92 40.91 41.16 40.45 39.79 37.66 38.31 39.63 40.90 37.91 38.77 37.62 38.94 38.64 39.92 40.24 40.33 39.88 38.63 36.75 38.72 40.40 41.85 42.38 42.16 42.16 41.80 44.60 46.72 47.66 48.01 48.28 48.69 49.27 49.66 49.89 50.40 50.87
41.94 42.14 41.62 41.85 41.54 39.87 39.96 39.93 39.85 40.76 41.00 38.02 38.30 38.20 39.21 40.12 38.52 34.32 37.44 38.62 39.58 38.70 38.20 37.38 35.51 36.42 38.23 39.88 40.84 41.43 40.58 39.81 41.77 43.99 45.13 45.92 46.82 47.06 47.64 47.87 48.60 49.07 49.55
40.99 39.84 39.95 39.88 39.58 40.42 39.72 38.43 38.65 39.43 40.33 39.88 39.61 38.45 38.59 38.68 39.57 38.92 35.14 34.78 37.41 38.73 37.83 36.43 34.07 34.23 35.94 37.79 38.56 38.91 39.49 38.53 39.34 41.67 43.04 43.43 44.40 44.81 45.29 46.04 46.75 47.46 48.06
39.23 38.72 38.80 39.06 38.24 39.55 39.08 38.51 38.66 39.19 39.16 39.25 39.25 38.96 39.27 39.15 38.39 37.70 37.08 35.57 36.60 36.18 37.37 36.33 33.80 32.89 34.87 35.89 36.29 36.74 37.46 36.94 37.61 39.32 41.40 40.66 41.70 42.53 43.06 43.59 44.64 45.44 46.22
38.29 37.12 38.56 37.86 37.99 38.40 36.78 37.04 37.32 37.75 38.74 38.38 37.99 36.62 36.99 36.97 39.19 38.52 37.97 35.37 35.65 36.07 36.73 36.61 33.77 32.47 32.60 34.86 35.70 34.88 36.02 34.91 36.30 37.50 38.48 38.78 39.11 39.74 40.53 41.38 42.09 43.09 43.76
39.09 38.63 38.03 37.78 36.39 36.00 36.50 37.40 37.69 36.67 37.13 36.43 36.17 36.20 36.06 36.00 37.43 37.82 37.34 36.10 33.21 34.73 35.27 32.67 34.96 31.50 31.85 32.74 33.52 31.61 35.59 32.77 34.28 35.41 35.54 36.76 36.74 36.94 37.86 38.46 39.14 40.07 41.06
38.18 38.33 37.82 36.31 36.13 35.43 35.98 36.47 35.62 35.03 35.64 35.53 35.03 35.11 34.90 34.58 35.08 35.32 36.60 36.53 34.92 33.42 33.10 32.94 31.79 31.11 31.02 32.18 31.27 33.28 34.74 30.46 32.71 33.47 33.42 34.61 34.82 35.46 35.44 36.23 36.74 37.10 38.43
37.03 36.39 36.15 35.51 36.18 35.94 34.73 35.17 34.24 34.32 33.40 33.25 33.54 33.18 33.00 32.88 32.82 34.24 35.32 35.46 35.92 35.19 32.17 33.75 30.54 29.85 30.07 30.04 29.57 31.64 32.48 30.48 29.73 30.91 31.64 32.76 33.07 33.27 33.15 33.48 34.36 34.91 35.56
36.47 35.92 35.67 35.29 34.67 34.56 34.96 34.56 33.86 32.92 32.43 32.07 32.33 31.15 29.88 31.06 31.56 32.73 34.35 33.19 32.63 34.60 32.12 30.22 31.99 30.80 29.53 29.19 29.44 30.95 31.72 32.38 30.33 29.01 29.75 30.81 31.48 31.16 30.67 31.19 32.06 32.73 33.38
35.61 34.32 34.19 33.30 33.69 33.83 33.55 32.52 31.08 30.65 29.94 29.47 29.72 29.53 28.32 28.60 30.24 30.92 31.17 29.59 29.81 30.71 32.18 28.40 29.32 29.83 28.24 28.53 28.52 28.52 28.66 30.55 28.69 27.12 27.72 28.47 29.59 29.24 28.81 29.98 30.48 30.85 31.39
32.59 33.89 33.52 33.47 32.89 32.20 31.95 31.92 30.85 29.87 29.28 28.99 28.33 27.83 27.03 27.74 27.39 28.75 28.68 29.20 29.43 28.72 30.10 29.38 28.06 29.46 29.88 27.78 28.09 28.68 27.45 29.45 27.61 26.20 25.45 26.54 27.57 27.20 27.74 28.85 29.38 29.93 30.35
32.65 32.71 33.41 33.62 33.12 32.50 31.23 30.63 29.86 28.58 27.86 27.88 27.61 27.00 26.72 26.65 26.00 26.38 26.23 25.48 27.60 28.32 28.13 27.85 27.56 27.84 27.42 26.91 27.10 25.03 26.47 27.49 25.88 25.59 25.34 25.50 25.86 26.00 26.31 27.76 28.54 28.88 29.08
32.85 32.28 31.83 31.86 32.44 31.69 31.59 30.38 29.72 28.08 27.89 27.51 27.77 27.73 27.63 27.33 26.30 26.83 27.82 26.44 26.15 27.30 27.39 26.59 25.89 26.62 24.41 24.37 22.32 24.34 24.28 25.57 25.72 22.95 25.05 26.06 26.67 27.42 26.77 26.73 27.43 27.64 27.84
31.46 31.72 30.95 30.86 30.56 30.79 29.99 29.15 29.07 28.88 28.54 27.78 27.21 27.55 28.79 28.50 27.36 26.51 25.63 25.06 25.90 25.27 24.34 24.78 24.15 21.42 19.50 21.56 23.12 23.51 22.80 22.52 22.64 23.90 21.95 24.00 25.34 25.80 26.04 25.97 25.65 26.07 26.60
30.88 30.16 30.43 30.75 30.34 30.42 29.64 28.80 28.03 28.94 28.01 27.40 27.11 27.87 29.46 30.31 28.02 27.84 27.02 26.46 25.18 23.70 23.25 24.36 22.06 21.60 21.97 20.02 19.39 21.60 20.98 21.50 21.13 20.88 21.73 22.80 24.01 23.40 25.85 25.40 24.60 24.95 25.18
30.62 30.30 29.75 29.93 29.87 29.41 29.79 28.69 27.28 27.85 27.13 27.04 27.12 28.81 29.13 28.06 27.19 25.36 25.38 25.36 25.17 24.91 24.32 24.68 23.55 22.89 23.37 23.35 21.84 21.97 21.13 22.05 22.78 22.01 19.56 19.94 23.39 21.84 24.28 26.25 23.63 23.74 23.81
29.97 29.90 29.62 29.33 28.86 30.04 30.18 28.49 26.90 26.72 26.27 25.97 26.58 28.30 28.39 27.62 25.73 25.70 25.90 24.60 24.38 24.28 24.64 23.68 22.89 21.64 21.66 20.94 20.77 24.85 21.87 20.22 19.88 19.46 19.90 19.27 21.43 20.22 22.95 24.19 25.11 23.10 22.76
29.11 29.49 28.82 29.40 30.07 30.26 30.37 28.53 27.16 26.57 24.82 24.96 25.84 26.43 25.18 26.38 25.44 25.06 25.60 24.29 21.76 21.57 22.38 21.46 21.51 20.90 19.88 19.99 18.19 21.10 22.50 19.20 18.58 20.81 19.57 17.86 18.89 18.92 19.01 24.60 23.55 23.88 23.27
MSLP
1019.10 1019.43 1019.71 1019.95 1020.29 1020.60 1020.59 1020.54 1020.51 1021.11 1021.32 1021.34 1021.36 1021.48 1021.81 1022.14 1022.33 1022.51 1022.56 1022.67 1022.40 1022.19 1022.13 1021.93 1021.74 1021.58 1021.44 1021.34 1021.37 1021.08 1020.63 1020.38 1019.91 1019.59 1019.26 1019.14 1018.75 1018.33 1017.83 1017.37 1016.86 1016.77 1016.54
1019.29 1019.55 1019.82 1020.08 1020.42 1020.61 1020.53 1020.45 1020.96 1021.45 1021.59 1021.50 1021.83 1022.21 1022.32 1022.67 1023.03 1023.03 1023.10 1023.44 1023.40 1023.21 1023.01 1022.82 1022.60 1022.24 1022.10 1021.96 1021.76 1021.37 1020.98 1020.77 1020.33 1019.90 1019.52 1019.23 1018.93 1018.47 1018.06 1017.60 1016.93 1016.60 1016.35
1019.29 1019.49 1019.82 1020.24 1020.49 1020.48 1020.56 1020.84 1021.39 1021.63 1021.77 1022.00 1022.36 1022.65 1022.64 1023.19 1023.40 1023.51 1023.48 1023.71 1023.78 1023.98 1023.81 1023.70 1023.25 1022.91 1022.63 1022.36 1021.90 1021.47 1021.25 1020.92 1020.49 1020.12 1019.78 1019.54 1019.07 1018.69 1018.41 1017.86 1017.28 1016.77 1016.42
1019.38 1019.68 1019.90 1020.16 1020.50 1020.56 1020.58 1020.95 1021.17 1021.40 1022.13 1022.43 1022.76 1022.98 1023.11 1023.66 1023.88 1024.03 1024.31 1024.23 1024.35 1024.35 1024.33 1024.47 1024.04 1023.63 1023.26 1022.69 1022.16 1021.93 1021.65 1021.42 1020.92 1020.40 1020.04 1019.66 1019.40 1018.98 1018.50 1018.15 1017.62 1017.04 1016.61
1019.42 1019.69 1019.96 1020.46 1020.59 1020.74 1021.02 1021.30 1021.63 1021.79 1022.31 1022.80 1023.02 1023.29 1023.96 1024.19 1024.19 1024.36 1024.69 1024.80 1024.91 1024.92 1024.81 1025.08 1024.90 1024.55 1024.09 1023.47 1022.92 1022.67 1022.38 1021.84 1021.09 1020.55 1020.25 1019.91 1019.69 1019.28 1018.85 1018.50 1017.89 1017.28 1016.91
1019.70 1019.90 1020.19 1020.62 1020.80 1021.00 1021.49 1021.71 1021.90 1022.44 1022.56 1022.82 1023.12 1023.92 1024.35 1024.51 1024.64 1024.88 1024.94 1024.94 1025.15 1025.21 1025.33 1025.35 1025.04 1025.00 1024.94 1024.27 1023.70 1023.46 1023.13 1022.48 1021.67 1020.96 1020.57 1020.23 1019.86 1019.72 1019.24 1018.67 1018.06 1017.56 1017.09
1019.77 1020.07 1020.28 1020.84 1020.95 1021.21 1021.70 1022.02 1022.27 1022.52 1023.22 1023.42 1023.19 1024.17 1024.80 1025.05 1025.05 1024.88 1025.13 1025.27 1025.39 1025.49 1025.61 1025.57 1025.41 1025.29 1025.12 1025.07 1024.68 1024.43 1023.61 1022.99 1022.19 1021.61 1020.94 1020.57 1020.40 1019.98 1019.53 1018.98 1018.12 1017.84 1017.30
1019.67 1019.96 1020.23 1020.52 1021.00 1021.34 1021.87 1022.16 1022.28 1022.60 1023.12 1023.48 1023.11 1023.26 1023.94 1025.08 1025.33 1025.46 1025.45 1025.57 1025.72 1025.70 1025.77 1025.95 1025.95 1025.80 1025.83 1025.57 1025.33 1024.77 1024.54 1023.97 1023.13 1022.50 1021.90 1021.16 1020.84 1020.57 1019.86 1019.46 1018.68 1018.10 1017.51
1019.46 1019.64 1020.02 1020.44 1021.06 1021.41 1021.76 1021.99 1022.32 1022.40 1022.57 1023.50 1023.67 1023.25 1023.36 1023.22 1024.56 1025.56 1025.66 1025.86 1025.86 1025.81 1025.87 1026.24 1026.46 1026.56 1026.37 1025.91 1025.72 1025.26 1024.97 1024.81 1024.21 1023.44 1022.56 1022.05 1021.63 1021.15 1020.60 1020.00 1019.24 1018.48 1017.77
1019.04 1019.22 1019.56 1019.89 1020.63 1021.41 1021.83 1022.05 1022.16 1022.41 1022.23 1022.75 1023.69 1023.95 1023.93 1023.85 1023.57 1024.53 1025.49 1025.92 1026.04 1026.15 1026.12 1026.63 1026.85 1026.71 1026.73 1026.54 1025.99 1025.85 1025.49 1025.31 1024.94 1023.98 1023.33 1022.95 1022.38 1021.89 1021.31 1020.62 1019.74 1018.94 1018.24
1019.52 1019.18 1019.06 1019.61 1020.49 1021.40 1021.89 1021.64 1022.09 1021.79 1022.15 1022.23 1022.65 1023.41 1023.85 1024.24 1024.52 1023.85 1024.13 1025.25 1025.84 1026.27 1026.57 1027.06 1027.50 1026.83 1027.11 1026.91 1026.57 1026.28 1026.01 1025.85 1025.33 1024.54 1024.05 1023.77 1023.18 1022.61 1021.92 1021.16 1020.27 1019.59 1018.89
1019.16 1019.66 1019.24 1019.92 1020.70 1021.08 1022.02 1022.08 1022.02 1022.08 1022.20 1022.40 1022.93 1023.26 1023.55 1023.83 1024.31 1024.65 1024.54 1024.76 1025.05 1026.13 1026.65 1027.15 1027.49 1027.20 1027.31 1027.10 1027.08 1026.90 1026.62 1026.39 1025.78 1025.20 1024.60 1024.30 1023.79 1023.06 1022.40 1021.79 1020.79 1020.31 1019.61
1018.48 1018.87 1018.43 1019.60 1020.39 1021.01 1022.06 1022.24 1021.99 1022.16 1022.42 1022.50 1023.15 1023.57 1023.95 1024.48 1025.02 1025.18 1025.21 1024.50 1024.79 1025.85 1026.42 1027.12 1027.68 1027.48 1027.43 1027.29 1027.22 1027.35 1026.96 1026.79 1026.20 1025.58 1025.08 1024.56 1024.10 1023.44 1022.78 1022.21 1021.48 1020.90 1020.29
1017.37 1018.42 1019.06 1019.45 1020.77 1021.19 1021.78 1022.10 1022.19 1022.43 1022.75 1023.06 1023.30 1023.54 1024.00 1024.68 1025.43 1025.69 1025.76 1025.08 1024.81 1025.17 1026.02 1026.88 1027.56 1027.70 1027.51 1027.66 1027.66 1027.67 1026.90 1027.01 1026.42 1025.98 1025.55 1024.95 1024.44 1023.91 1023.32 1022.74 1022.24 1021.66 1021.02
1017.40 1018.06 1018.76 1019.48 1020.53 1021.20 1021.56 1021.86 1022.38 1022.80 1023.36 1023.71 1023.67 1023.97 1024.23 1024.98 1025.75 1025.89 1026.17 1025.63 1025.06 1024.33 1025.16 1026.85 1027.22 1027.92 1027.84 1027.82 1027.85 1027.42 1027.00 1027.30 1026.51 1026.26 1025.88 1025.31 1024.88 1024.40 1023.82 1023.32 1022.74 1022.32 1021.70
1016.86 1017.80 1018.68 1019.22 1020.58 1021.35 1021.41 1021.87 1022.33 1022.99 1023.41 1023.98 1023.73 1024.21 1024.70 1025.47 1025.86 1026.40 1026.39 1026.00 1026.03 1025.29 1025.03 1026.90 1027.72 1028.19 1028.16 1027.91 1027.91 1027.49 1027.31 1027.12 1026.85 1026.63 1026.22 1025.69 1025.30 1024.95 1024.50 1023.99 1023.34 1022.74 1022.25
1017.07 1017.74 1018.53 1019.55 1020.55 1021.25 1021.40 1021.27 1022.36 1023.09 1023.18 1024.04 1023.73 1024.66 1025.01 1025.64 1025.95 1026.44 1026.68 1025.98 1025.73 1026.01 1025.47 1026.91 1027.95 1028.28 1028.11 1027.96 1027.65 1027.44 1027.27 1026.93 1026.78 1026.90 1026.65 1026.15 1025.71 1025.38 1025.14 1024.55 1023.88 1023.22 1022.42
1017.44 1017.58 1018.71 1019.53 1020.43 1021.08 1021.57 1022.13 1022.21 1022.71 1023.26 1023.57 1024.00 1024.99 1025.54 1025.94 1026.51 1026.69 1026.83 1026.47 1026.30 1026.65 1026.27 1026.35 1027.88 1028.19 1028.16 1028.31 1027.90 1027.57 1027.57 1027.29 1027.07 1027.17 1026.94 1026.61 1026.13 1025.89 1025.57 1024.88 1024.21 1023.51 1022.76
1017.18 1016.83 1018.34 1019.19 1020.27 1020.51 1021.52 1022.33 1022.42 1022.60 1023.36 1023.95 1024.60 1025.03 1025.98 1026.44 1026.91 1027.09 1027.16 1027.01 1026.81 1027.01 1026.97 1026.66 1027.75 1028.36 1028.32 1028.44 1027.80 1027.55 1027.68 1027.44 1027.37 1027.35 1027.11 1026.81 1026.54 1026.30 1025.91 1025.21 1024.62 1023.95 1023.21
1016.36 1017.65 1017.69 1018.87 1019.60 1020.51 1021.09 1022.38 1022.60 1022.80 1023.13 1024.28 1024.39 1025.18 1026.01 1026.79 1027.47 1027.53 1027.35 1027.80 1027.67 1027.22 1027.33 1027.23 1028.04 1028.53 1028.39 1028.46 1028.23 1027.90 1027.42 1027.69 1027.63 1027.48 1027.10 1026.88 1026.66 1026.44 1026.23 1025.63 1025.05 1024.51 1023.83
1016.58 1016.81 1018.15 1018.70 1019.29 1020.36 1021.14 1021.52 1022.62 1023.13 1023.05 1023.98 1024.75 1025.30 1025.87 1026.70 1027.85 1027.69 1027.92 1027.98 1028.08 1027.71 1027.49 1027.71 1028.36 1028.87 1028.86 1028.63 1028.68 1028.64 1027.99 1027.81 1028.12 1028.29 1027.03 1026.54 1026.11 1026.02 1026.15 1025.79 1025.42 1025.01 1024.34
1015.82 1017.07 1018.13 1018.09 1018.92 1020.28 1020.52 1021.48 1022.29 1022.69 1023.59 1024.14 1024.83 1025.76 1026.24 1026.59 1027.28 1028.01 1028.79 1028.60 1028.40 1028.35 1028.23 1028.31 1029.17 1029.61 1029.78 1029.58 1029.31 1028.92 1028.55 1027.93 1027.60 1028.17 1027.95 1026.92 1026.70 1026.22 1026.34 1026.39 1026.04 1025.40 1024.72
1015.81 1016.71 1017.26 1018.19 1019.44 1019.58 1020.59 1021.26 1021.84 1022.44 1023.45 1024.30 1024.42 1025.65 1026.50 1026.81 1026.80 1028.22 1028.66 1028.66 1028.89 1028.95 1029.21 1029.30 1029.64 1029.97 1029.90 1030.26 1030.03 1029.19 1028.98 1028.63 1028.63 1029.11 1028.24 1027.13 1027.21 1026.87 1026.89 1026.57 1026.26 1025.75 1025.15
1014.94 1016.16 1016.85 1017.95 1018.45 1019.39 1020.65 1020.96 1021.64 1022.46 1023.72 1024.19 1024.14 1025.23 1026.36 1026.53 1026.98 1028.40 1028.79 1028.93 1028.92 1029.11 1029.39 1029.76 1030.15 1030.35 1030.39 1030.36 1030.19 1029.84 1029.51 1028.93 1029.00 1029.16 1029.04 1027.72 1027.58 1027.27 1027.16 1026.73 1026.44 1026.00 1025.49
1014.15 1015.70 1017.20 1018.12 1018.14 1018.86 1019.80 1020.50 1021.23 1022.53 1023.74 1024.10 1024.56 1024.95 1025.60 1026.65 1027.38 1027.74 1027.97 1028.38 1028.70 1029.35 1029.55 1029.84 1030.32 1030.50 1030.40 1030.33 1030.17 1029.15 1029.17 1028.84 1028.65 1029.15 1029.49 1028.97 1028.15 1027.63 1027.19 1026.75 1026.48 1026.18 1025.62
1013.99 1015.06 1017.04 1018.04 1017.65 1018.52 1019.09 1020.12 1021.03 1021.84 1022.86 1023.82 1024.45 1024.99 1025.80 1026.64 1027.37 1027.69 1027.87 1027.96 1028.69 1029.53 1029.88 1030.05 1030.59 1030.71 1030.69 1030.50 1030.50 1030.19 1029.55 1029.22 1029.23 1028.89 1029.78 1029.44 1028.71 1028.36 1027.09 1026.55 1026.65 1026.33 1025.81
Wind_Speed
6 6 6 5 5 5 5 6 8 6 7 9 10 12 12 11 10 6 7 18 17 18 18 17 17 17 17 16 17 17 16 19 17 18 18 19 19 19 20 21 13 13 11
6 6 6 6 5 4 5 7 7 5 6 9 11 11 11 10 10 9 7 10 19 19 17 17 17 16 15 16 15 14 15 15 16 17 18 18 19 19 20 20 19 13 15
8 8 6 6 5 6 9 8 7 6 7 8 11 9 9 9 9 9 8 6 8 18 19 18 18 17 16 17 16 16 17 18 17 17 17 17 18 19 19 20 20 17 17
9 7 6 6 6 6 6 6 6 8 7 7 7 8 8 8 10 10 9 7 8 7 13 18 19 19 18 17 17 19 19 19 19 17 18 18 18 19 19 20 20 19 18
9 7 6 6 7 6 6 5 6 6 8 8 8 8 7 7 8 8 10 10 10 9 7 14 16 19 18 18 19 19 19 19 17 18 18 19 19 20 19 19 19 18 18
9 7 7 7 6 7 6 5 8 6 7 8 9 9 7 7 7 6 7 7 9 10 10 10 8 9 17 18 19 21 19 19 19 19 19 19 19 19 19 20 21 20 17
9 8 6 7 6 6 7 8 8 10 7 8 7 7 7 7 7 6 6 6 7 9 10 9 7 6 7 15 18 19 21 22 21 20 20 20 19 20 20 20 20 20 19
10 8 9 8 7 7 8 6 7 6 4 4 2 4 5 4 5 5 5 6 7 6 8 11 10 9 8 6 12 18 20 21 22 22 22 22 21 21 21 21 20 20 20
10 10 9 8 7 6 6 6 6 5 5 3 4 2 3 2 5 3 5 4 5 5 7 9 10 8 7 6 9 12 19 19 20 21 22 22 21 22 22 21 21 21 20
11 11 11 10 8 6 6 5 5 5 4 6 4 3 4 2 2 5 4 4 4 5 7 6 7 7 8 6 10 14 17 18 19 19 20 21 22 22 22 22 23 22 23
9 11 11 11 10 6 6 7 7 7 5 6 4 4 4 3 2 1 4 6 4 4 5 5 6 6 7 6 8 10 17 15 18 19 18 20 21 22 23 23 24 24 24
7 8 9 8 8 8 7 6 6 7 6 7 5 4 3 1 2 3 2 3 2 4 4 4 5 6 5 5 7 10 14 15 15 16 18 18 21 21 22 24 24 25 24
10 10 13 12 10 10 8 7 8 8 8 8 7 6 5 5 2 1 1 4 3 3 3 3 4 5 5 5 6 11 11 15 14 15 18 18 21 22 23 24 25 25 26
11 14 10 11 10 10 9 8 6 6 8 7 9 8 6 5 2 1 1 2 4 3 3 3 3 6 5 5 7 8 6 15 15 14 17 18 20 21 22 23 24 25 25
11 14 13 13 11 11 11 11 7 8 7 6 8 8 6 5 3 3 1 1 3 3 3 4 2 6 5 4 8 5 5 12 16 15 16 16 18 20 22 23 23 23 25
14 15 14 14 13 12 12 10 9 9 9 6 6 8 7 5 4 3 2 2 1 2 4 2 4 5 6 4 6 5 6 5 16 16 16 15 17 20 22 22 22 23 23
15 15 14 14 13 13 12 11 11 11 10 9 8 7 8 7 5 4 2 3 4 2 4 4 2 3 6 7 7 6 4 5 7 15 15 14 15 18 20 20 22 22 23
13 14 13 12 13 13 12 11 12 11 11 11 10 9 8 5 6 5 3 6 5 4 2 6 3 3 5 8 7 7 5 4 8 12 14 15 14 17 19 19 22 23 24
11 15 14 15 15 14 13 10 11 12 11 10 10 9 8 8 6 5 4 5 5 4 4 4 4 3 2 6 6 5 6 3 5 13 8 14 11 15 18 19 22 23 24
15 13 13 14 14 14 13 13 12 12 13 11 11 11 10 8 8 7 7 5 4 5 5 5 4 3 3 5 4 6 5 4 4 8 6 9 9 11 17 20 21 22 23
12 13 13 12 13 11 10 13 12 13 14 14 12 11 10 11 10 8 5 6 5 5 5 5 4 3 5 5 6 5 5 4 2 9 6 7 8 6 9 15 18 22 23
13 13 12 13 14 10 20 21 16 12 12 13 12 10 10 14 13 12 10 8 7 6 7 5 4 4 4 4 5 5 6 5 2 8 8 6 9 6 7 10 22 22 23
16 15 14 16 14 12 24 23 21 12 12 11 13 11 9 7 11 8 9 9 11 12 9 6 5 4 4 3 4 5 6 6 4 5 9 4 9 7 5 8 22 22 22
16 14 14 15 15 12 23 23 20 14 12 12 12 12 11 12 11 9 8 8 8 8 7 5 5 4 3 2 3 4 5 5 3 3 10 5 8 8 5 5 17 22 21
16 14 12 14 14 15 25 25 19 14 12 12 10 11 11 11 14 14 10 9 9 7 9 9 9 9 8 9 8 2 4 5 3 4 7 5 7 8 4 4 8 21 20
15 13 13 12 16 16 26 26 19 12 14 11 11 11 12 10 15 13 8 9 8 6 5 5 4 5 6 7 9 5 4 5 5 1 7 6 6 7 5 3 8 9 11
Wind_Direction
131 129 121 115 109 114 108 96 81 86 94 91 83 82 79 72 69 70 62 50 53 51 44 42 39 34 34 31 15 6 3 4 357 355 357 3 358 357 355 352 312 306 298
139 135 130 121 115 111 98 85 83 98 91 91 82 78 75 72 70 71 74 61 56 51 46 43 36 33 27 24 14 7 8 4 359 352 352 352 353 356 357 353 354 339 314
149 143 137 130 124 114 105 97 102 102 95 90 86 79 79 73 73 69 66 65 66 53 48 42 38 33 26 21 15 14 18 9 6 358 350 354 353 354 352 353 353 348 355
151 145 140 132 127 109 107 105 111 103 102 98 90 78 76 77 78 75 69 62 56 46 50 40 37 34 29 24 20 18 14 5 1 1 3 2 358 355 354 351 347 347 344
151 145 136 127 126 113 103 119 106 119 121 113 99 83 78 77 77 82 79 73 65 54 46 50 43 36 33 28 23 21 12 6 3 3 2 1 1 357 354 346 348 344 339
147 140 130 130 124 115 113 109 121 114 119 119 99 86 77 77 83 84 81 77 69 61 51 39 36 48 32 30 27 22 13 9 5 8 8 6 3 356 355 352 351 340 335
147 143 134 132 126 127 121 114 123 129 117 129 116 104 89 81 82 82 72 71 68 65 55 45 39 31 34 33 26 26 19 13 11 11 12 11 5 4 358 351 351 341 334
153 151 149 143 138 127 136 147 150 142 117 175 151 148 156 143 91 74 83 75 68 66 59 48 39 36 24 28 26 27 23 14 13 15 14 13 10 5 5 1 355 349 343
160 159 150 132 131 138 153 162 173 166 148 130 221 293 165 143 144 131 93 82 76 72 63 47 36 30 25 23 25 22 27 16 8 10 13 11 11 8 6 2 360 357 351
163 160 151 146 138 136 151 152 158 174 144 131 127 71 54 55 181 162 152 130 95 82 65 49 34 34 24 17 25 18 26 17 1 10 14 11 12 9 6 5 4 3 359
172 161 151 142 148 152 161 147 155 142 143 149 128 146 109 77 56 253 158 157 138 100 77 57 29 34 30 19 21 9 17 16 4 12 12 10 12 11 10 7 9 6 2
166 174 140 138 142 146 157 148 124 120 118 118 123 126 125 93 152 231 168 139 138 141 104 62 34 31 27 22 15 10 14 20 10 10 13 15 15 13 13 9 11 7 2
173 176 154 157 159 152 152 149 130 125 122 116 116 106 94 82 95 68 40 115 167 138 155 93 43 29 25 14 16 359 24 25 11 11 8 21 16 12 14 13 10 8 3
171 167 160 149 147 142 144 142 126 114 117 119 117 113 110 97 83 26 312 201 148 156 135 35 75 26 25 15 6 347 31 22 18 12 16 8 18 14 12 15 11 7 3
162 160 154 149 150 152 149 141 136 127 127 125 120 114 104 101 101 84 89 298 310 166 116 102 25 37 16 1 17 352 25 29 27 17 19 12 17 14 12 8 7 8 2
156 156 154 147 154 155 148 141 132 137 139 140 124 122 114 111 108 106 101 87 5 38 119 39 63 21 18 9 22 356 32 27 31 24 19 14 19 15 12 6 5 4 5
160 158 156 153 155 156 152 145 144 150 141 144 126 129 123 125 124 143 139 101 94 45 106 121 38 35 28 12 18 20 16 44 33 25 21 15 18 18 12 6 8 5 5
161 148 150 151 157 157 156 153 150 153 145 143 137 143 125 126 138 140 136 96 84 65 112 113 59 28 31 10 12 16 24 40 35 29 27 18 19 20 14 9 11 7 4
150 148 157 161 165 157 161 156 155 147 141 140 143 129 132 137 139 134 108 103 95 95 89 101 96 32 24 19 7 26 27 41 38 23 24 29 27 27 22 14 14 9 7
156 163 158 163 163 161 157 163 152 148 138 142 135 134 138 139 139 133 111 106 98 106 96 89 83 46 28 27 10 10 7 31 32 12 48 31 31 29 27 14 15 11 9
162 155 157 155 154 158 165 155 160 152 144 142 134 133 131 127 128 118 126 118 124 111 94 90 84 66 36 25 24 359 355 341 110 12 358 24 13 22 24 17 12 11 9
155 158 163 155 156 171 164 157 152 146 146 145 141 137 142 134 125 116 116 101 92 97 86 88 84 70 48 24 16 10 4 1 7 39 344 24 11 18 19 13 11 10 9
163 167 159 162 169 161 164 158 149 143 146 151 139 145 157 147 130 139 125 107 109 90 74 82 92 54 48 16 339 2 13 8 17 18 344 22 16 6 1 9 11 10 8
166 168 162 166 160 162 166 154 146 143 147 150 144 152 158 146 142 145 143 128 115 103 104 94 78 81 53 38 343 336 352 324 122 81 1 357 358 351 342 350 5 7 6
159 162 159 161 156 155 163 150 145 150 155 144 141 154 154 157 158 161 157 143 122 103 107 110 88 71 61 41 18 309 24 13 35 33 24 330 1 337 324 333 0 1 359
151 144 151 162 157 161 162 158 155 153 152 149 148 148 155 169 167 168 172 150 141 130 136 119 102 84 62 50 39 22 11 23 8 45 28 340 355 1 326 1 351 357 353